TimeAEST,TemperatureF,Dew PointF,Humidity,Sea Level PressureIn,VisibilityMPH,Wind Direction,Wind SpeedMPH,Gust SpeedMPH,PrecipitationIn,Events,Conditions,WindDirDegrees,DateUTC
12:00 AM,71,63,70,30.06,,South,11.5,,,,,170,2012-10-03 14:00:00
12:00 AM,71.6,62.6,73,30.06,5.6,South,11.5,-,N/A,Rain,Light Rain Showers,170,2012-10-03 14:00:00
12:30 AM,69.8,64.4,83,30.04,6.2,South,12.7,-,N/A,,Mostly Cloudy,180,2012-10-03 14:30:00
1:00 AM,70,65,78,30.05,,South,15.0,,,,,170,2012-10-03 15:00:00
1:00 AM,69.8,64.4,83,30.04,6.2,South,15.0,-,N/A,,Mostly Cloudy,170,2012-10-03 15:00:00
1:30 AM,68.0,66.2,94,30.04,5.6,South,13.8,-,N/A,Rain,Light Rain Showers,180,2012-10-03 15:30:00
2:00 AM,69.8,64.4,83,30.04,6.2,South,12.7,-,N/A,,Mostly Cloudy,170,2012-10-03 16:00:00
2:30 AM,69.8,64.4,83,30.01,6.2,South,12.7,-,N/A,,Scattered Clouds,170,2012-10-03 16:30:00
3:00 AM,69,62,72,30.02,,South,12.7,,,,,170,2012-10-03 17:00:00
3:00 AM,69.8,62.6,78,30.01,6.2,South,12.7,-,N/A,,Scattered Clouds,170,2012-10-03 17:00:00
3:30 AM,69.8,60.8,73,30.01,6.2,SSE,11.5,-,N/A,,Mostly Cloudy,160,2012-10-03 17:30:00
4:00 AM,69,60,67,30.02,,South,11.5,,,,,170,2012-10-03 18:00:00
4:00 AM,69.8,60.8,73,30.01,6.2,South,11.5,-,N/A,,Mostly Cloudy,170,2012-10-03 18:00:00
4:30 AM,69.8,60.8,73,30.01,6.2,South,12.7,-,N/A,,Mostly Cloudy,170,2012-10-03 18:30:00
5:00 AM,69.8,60.8,73,30.01,6.2,South,11.5,-,N/A,,Mostly Cloudy,170,2012-10-03 19:00:00
5:30 AM,69.8,60.8,73,30.04,6.2,SSE,12.7,-,N/A,,Mostly Cloudy,160,2012-10-03 19:30:00
6:00 AM,70,61,65,30.05,16,SSE,11.5,,,,Partly Cloudy,160,2012-10-03 20:00:00
6:00 AM,69.8,60.8,73,30.04,6.2,SSE,11.5,-,N/A,,Mostly Cloudy,160,2012-10-03 20:00:00
6:30 AM,69.8,60.8,73,30.04,6.2,SSE,11.5,-,N/A,,Mostly Cloudy,150,2012-10-03 20:30:00
7:00 AM,70,60,63,30.07,,SSE,12.7,,,,,150,2012-10-03 21:00:00
7:00 AM,69.8,60.8,73,30.06,6.2,SSE,12.7,-,N/A,,Mostly Cloudy,150,2012-10-03 21:00:00
7:30 AM,71.6,60.8,69,30.06,6.2,SSE,10.4,-,N/A,,Mostly Cloudy,160,2012-10-03 21:30:00
8:00 AM,71.6,59.0,64,30.06,6.2,South,11.5,-,N/A,,Mostly Cloudy,170,2012-10-03 22:00:00
8:30 AM,77.0,60.8,57,30.09,6.2,South,11.5,-,N/A,,Scattered Clouds,170,2012-10-03 22:30:00
9:00 AM,78,61,46,30.09,19,SSE,13.8,,,,Partly Cloudy,160,2012-10-03 23:00:00
9:00 AM,77.0,60.8,57,30.09,6.2,SSE,13.8,-,N/A,,Scattered Clouds,150,2012-10-03 23:00:00
9:30 AM,80.6,60.8,51,30.09,6.2,SE,20.7,-,N/A,,Partly Cloudy,140,2012-10-03 23:30:00
10:00 AM,80,59,38,30.10,,SE,20.7,,,,,140,2012-10-04 00:00:00
10:00 AM,80.6,59.0,48,30.09,6.2,SE,20.7,-,N/A,,Partly Cloudy,140,2012-10-04 00:00:00
10:30 AM,80.6,59.0,48,30.06,6.2,SE,21.9,-,N/A,,Partly Cloudy,140,2012-10-04 00:30:00
11:00 AM,82.4,60.8,48,30.06,6.2,SE,23.0,-,N/A,,Partly Cloudy,140,2012-10-04 01:00:00
11:15 AM,80.6,59.0,48,30.06,6.2,SE,24.2,-,N/A,,Partly Cloudy,130,2012-10-04 01:15:00
11:30 AM,82.4,60.8,48,30.06,6.2,SE,25.3,-,N/A,,Partly Cloudy,130,2012-10-04 01:30:00
12:00 PM,80,64,48,30.05,16,SE,25.3,,,,Mostly Cloudy,130,2012-10-04 02:00:00
12:00 PM,80.6,64.4,58,30.04,6.2,SE,25.3,-,N/A,,Mostly Cloudy,130,2012-10-04 02:00:00
12:19 PM,75.2,62.6,65,30.06,6.2,SSE,18.4,-,N/A,,Mostly Cloudy,160,2012-10-04 02:19:00
12:30 PM,75.2,60.8,61,30.04,6.2,SSE,19.6,-,N/A,,Mostly Cloudy,160,2012-10-04 02:30:00
1:00 PM,77,61,48,30.04,,South,11.5,,,,,170,2012-10-04 03:00:00
1:00 PM,77.0,60.8,57,30.04,6.2,South,11.5,-,N/A,,Mostly Cloudy,170,2012-10-04 03:00:00
1:30 PM,80.6,57.2,45,30.01,6.2,SE,20.7,-,N/A,,Mostly Cloudy,140,2012-10-04 03:30:00
2:00 PM,78.8,62.6,57,30.01,6.2,SE,21.9,-,N/A,,Scattered Clouds,130,2012-10-04 04:00:00
2:30 PM,75.2,62.6,65,29.98,6.2,SE,21.9,-,N/A,,Scattered Clouds,140,2012-10-04 04:30:00
3:00 PM,78,61,46,29.99,16,SE,19.6,,,,Partly Cloudy,140,2012-10-04 05:00:00
3:00 PM,78.8,60.8,54,29.98,6.2,SE,19.6,-,N/A,,Scattered Clouds,140,2012-10-04 05:00:00
3:30 PM,78.8,60.8,54,29.98,6.2,SE,21.9,-,N/A,,Partly Cloudy,140,2012-10-04 05:30:00
4:00 PM,79,59,40,29.99,,SE,23.0,,,,,140,2012-10-04 06:00:00
4:00 PM,78.8,59.0,51,29.98,6.2,SE,23.0,-,N/A,,Mostly Cloudy,140,2012-10-04 06:00:00
4:30 PM,77.0,59.0,54,29.98,6.2,SSE,24.2,-,N/A,,Mostly Cloudy,150,2012-10-04 06:30:00
5:00 PM,77.0,59.0,54,29.98,6.2,SSE,21.9,-,N/A,,Partly Cloudy,150,2012-10-04 07:00:00
5:30 PM,77.0,60.8,57,29.98,6.2,SSE,19.6,-,N/A,,Partly Cloudy,150,2012-10-04 07:30:00
6:00 PM,75,62,54,30.00,,SSE,19.6,,,,,150,2012-10-04 08:00:00
6:00 PM,75.2,60.8,61,30.01,6.2,SSE,19.6,-,N/A,,Partly Cloudy,150,2012-10-04 08:00:00
6:30 PM,75.2,60.8,61,30.01,6.2,SE,17.3,-,N/A,,Scattered Clouds,140,2012-10-04 08:30:00
7:00 PM,74,60,53,30.02,,SSE,13.8,,,,,150,2012-10-04 09:00:00
7:00 PM,73.4,60.8,65,30.01,6.2,SSE,13.8,-,N/A,,Scattered Clouds,150,2012-10-04 09:00:00
7:30 PM,73.4,60.8,65,30.01,6.2,SSE,12.7,-,N/A,,Scattered Clouds,160,2012-10-04 09:30:00
8:00 PM,73.4,62.6,69,30.01,6.2,SSE,15.0,-,N/A,,Scattered Clouds,160,2012-10-04 10:00:00
8:30 PM,73.4,62.6,69,30.01,6.2,SSE,13.8,-,N/A,,Scattered Clouds,160,2012-10-04 10:30:00
9:00 PM,72,63,65,30.04,,SSE,12.7,,,,Overcast,160,2012-10-04 11:00:00
9:00 PM,73.4,62.6,69,30.04,6.2,SSE,12.7,-,N/A,,Scattered Clouds,160,2012-10-04 11:00:00
9:30 PM,73.4,62.6,69,30.04,6.2,SSE,12.7,-,N/A,,Scattered Clouds,160,2012-10-04 11:30:00
10:00 PM,73,63,64,30.05,,SSE,15.0,,,,,160,2012-10-04 12:00:00
10:00 PM,73.4,62.6,69,30.04,6.2,SSE,15.0,-,N/A,Rain,Light Rain Showers,160,2012-10-04 12:00:00
10:30 PM,71.6,64.4,78,30.04,6.2,SSE,12.7,-,N/A,,Scattered Clouds,150,2012-10-04 12:30:00
11:00 PM,73.4,60.8,65,30.04,6.2,SSE,16.1,-,N/A,,Partly Cloudy,150,2012-10-04 13:00:00
11:30 PM,71.6,60.8,69,30.04,6.2,SSE,10.4,-,N/A,,Scattered Clouds,160,2012-10-04 13:30:00